QPF
0.00 0.00 0.00 0.00 0.00 0.00 0.00 0.00 0.00 0.00 0.00 0.00 0.00 0.00 0.00 0.00 0.00 0.00 0.00 0.00 0.00 0.00 0.00 0.00 0.00 0.00 0.00 0.00 0.01 0.01 0.00 0.00 0.00 0.00 0.00 0.00 0.00 0.00 0.00 0.00 0.00 0.00 0.00 0.00 0.00 0.00 0.00 0.00 0.01
0.00 0.00 0.00 0.00 0.00 0.00 0.00 0.00 0.00 0.00 0.00 0.00 0.00 0.00 0.00 0.00 0.00 0.00 0.00 0.00 0.00 0.00 0.00 0.00 0.00 0.00 0.00 0.00 0.03 0.07 0.01 0.00 0.00 0.00 0.00 0.00 0.00 0.01 0.00 0.00 0.00 0.00 0.00 0.00 0.00 0.00 0.00 0.01 0.01
0.00 0.00 0.00 0.00 0.00 0.00 0.00 0.00 0.00 0.00 0.00 0.00 0.00 0.00 0.00 0.00 0.00 0.00 0.00 0.00 0.00 0.00 0.00 0.00 0.00 0.00 0.00 0.01 0.06 0.14 0.02 0.00 0.00 0.00 0.00 0.00 0.00 0.01 0.00 0.00 0.00 0.00 0.00 0.00 0.00 0.00 0.00 0.00 0.00
0.00 0.00 0.00 0.00 0.00 0.00 0.00 0.00 0.00 0.00 0.00 0.00 0.00 0.00 0.00 0.00 0.00 0.00 0.00 0.00 0.00 0.00 0.00 0.00 0.00 0.00 0.00 0.00 0.05 0.09 0.01 0.00 0.00 0.00 0.00 0.00 0.00 0.00 0.00 0.00 0.00 0.00 0.00 0.00 0.00 0.00 0.00 0.00 0.00
0.00 0.00 0.00 0.00 0.00 0.00 0.00 0.00 0.00 0.00 0.00 0.00 0.00 0.00 0.00 0.00 0.00 0.00 0.00 0.00 0.00 0.00 0.00 0.00 0.00 0.00 0.00 0.01 0.04 0.04 0.00 0.00 0.00 0.00 0.00 0.00 0.00 0.00 0.00 0.00 0.00 0.00 0.00 0.00 0.00 0.00 0.00 0.00 0.00
0.00 0.00 0.00 0.00 0.00 0.00 0.00 0.00 0.00 0.00 0.00 0.00 0.00 0.00 0.00 0.00 0.00 0.00 0.00 0.00 0.00 0.00 0.00 0.00 0.00 0.00 0.00 0.00 0.01 0.00 0.00 0.00 0.00 0.00 0.00 0.00 0.00 0.00 0.00 0.00 0.00 0.00 0.00 0.01 0.00 0.00 0.00 0.00 0.00
0.00 0.00 0.00 0.00 0.00 0.00 0.00 0.00 0.00 0.00 0.00 0.00 0.00 0.00 0.00 0.00 0.00 0.00 0.00 0.00 0.00 0.00 0.00 0.00 0.00 0.00 0.00 0.00 0.00 0.00 0.00 0.00 0.00 0.00 0.00 0.00 0.00 0.00 0.00 0.00 0.00 0.00 0.00 0.00 0.00 0.00 0.00 0.00 0.00
0.00 0.00 0.00 0.00 0.00 0.00 0.00 0.00 0.00 0.00 0.00 0.00 0.00 0.00 0.00 0.00 0.00 0.00 0.00 0.00 0.00 0.00 0.00 0.00 0.00 0.00 0.00 0.00 0.00 0.00 0.00 0.00 0.00 0.00 0.00 0.00 0.00 0.00 0.00 0.00 0.00 0.00 0.00 0.00 0.00 0.00 0.00 0.00 0.00
0.00 0.00 0.00 0.00 0.00 0.00 0.00 0.00 0.00 0.00 0.00 0.00 0.00 0.00 0.00 0.00 0.00 0.00 0.00 0.00 0.00 0.00 0.00 0.00 0.00 0.00 0.00 0.00 0.00 0.00 0.00 0.00 0.00 0.00 0.00 0.00 0.00 0.00 0.00 0.00 0.00 0.00 0.00 0.00 0.00 0.00 0.00 0.00 0.00
0.00 0.00 0.00 0.00 0.00 0.00 0.00 0.00 0.00 0.00 0.00 0.00 0.00 0.00 0.00 0.00 0.00 0.00 0.00 0.00 0.00 0.00 0.00 0.00 0.00 0.00 0.00 0.00 0.00 0.00 0.00 0.00 0.00 0.00 0.00 0.00 0.00 0.00 0.00 0.00 0.00 0.00 0.00 0.00 0.00 0.00 0.00 0.00 0.00
0.00 0.00 0.00 0.00 0.00 0.00 0.00 0.00 0.00 0.00 0.00 0.00 0.00 0.00 0.00 0.00 0.00 0.00 0.00 0.00 0.00 0.00 0.00 0.00 0.00 0.00 0.00 0.00 0.00 0.00 0.00 0.00 0.00 0.00 0.00 0.00 0.00 0.00 0.00 0.00 0.00 0.00 0.00 0.00 0.00 0.00 0.00 0.00 0.00
0.00 0.00 0.00 0.00 0.00 0.00 0.00 0.00 0.00 0.00 0.00 0.00 0.00 0.00 0.00 0.00 0.00 0.00 0.00 0.00 0.00 0.00 0.00 0.00 0.00 0.00 0.00 0.00 0.00 0.00 0.00 0.00 0.00 0.00 0.00 0.00 0.00 0.00 0.00 0.00 0.00 0.00 0.00 0.00 0.00 0.00 0.00 0.00 0.00
0.00 0.00 0.00 0.00 0.00 0.00 0.00 0.00 0.00 0.00 0.00 0.00 0.00 0.00 0.00 0.00 0.00 0.00 0.00 0.00 0.00 0.00 0.00 0.00 0.00 0.00 0.00 0.00 0.00 0.00 0.00 0.00 0.00 0.00 0.00 0.00 0.00 0.00 0.00 0.00 0.00 0.00 0.00 0.00 0.00 0.00 0.00 0.00 0.00
0.00 0.00 0.00 0.00 0.00 0.00 0.00 0.00 0.00 0.00 0.00 0.00 0.00 0.00 0.00 0.00 0.00 0.00 0.00 0.00 0.00 0.00 0.00 0.00 0.00 0.00 0.00 0.00 0.00 0.00 0.00 0.00 0.00 0.00 0.00 0.00 0.00 0.00 0.00 0.00 0.00 0.00 0.00 0.00 0.00 0.00 0.00 0.00 0.00
0.00 0.00 0.00 0.00 0.00 0.00 0.00 0.00 0.00 0.00 0.00 0.00 0.00 0.00 0.00 0.00 0.00 0.00 0.00 0.00 0.00 0.00 0.00 0.00 0.00 0.00 0.00 0.00 0.00 0.00 0.00 0.00 0.00 0.00 0.00 0.00 0.00 0.00 0.00 0.00 0.00 0.00 0.00 0.00 0.00 0.00 0.00 0.00 0.00
0.00 0.00 0.00 0.00 0.00 0.00 0.00 0.00 0.00 0.00 0.00 0.00 0.00 0.00 0.00 0.00 0.00 0.00 0.00 0.00 0.00 0.00 0.00 0.00 0.00 0.00 0.00 0.00 0.00 0.00 0.00 0.00 0.00 0.00 0.00 0.00 0.00 0.00 0.00 0.00 0.00 0.00 0.00 0.00 0.00 0.00 0.00 0.00 0.00
0.00 0.00 0.00 0.00 0.00 0.00 0.00 0.00 0.00 0.00 0.00 0.00 0.00 0.00 0.00 0.00 0.00 0.00 0.00 0.00 0.00 0.00 0.00 0.00 0.00 0.00 0.00 0.00 0.00 0.00 0.00 0.00 0.00 0.00 0.00 0.00 0.00 0.00 0.00 0.00 0.00 0.00 0.00 0.00 0.00 0.00 0.00 0.00 0.00
0.00 0.00 0.00 0.00 0.00 0.00 0.00 0.00 0.00 0.00 0.00 0.00 0.00 0.00 0.00 0.00 0.00 0.00 0.00 0.00 0.00 0.00 0.00 0.00 0.00 0.00 0.00 0.00 0.00 0.00 0.00 0.00 0.00 0.00 0.00 0.00 0.00 0.00 0.00 0.00 0.00 0.00 0.00 0.00 0.00 0.00 0.00 0.00 0.00
0.00 0.00 0.00 0.00 0.00 0.00 0.00 0.00 0.00 0.00 0.00 0.00 0.00 0.00 0.00 0.00 0.00 0.00 0.00 0.00 0.00 0.00 0.00 0.00 0.00 0.00 0.00 0.00 0.00 0.00 0.00 0.00 0.00 0.00 0.00 0.00 0.00 0.00 0.00 0.00 0.00 0.00 0.00 0.00 0.00 0.00 0.00 0.00 0.00
0.00 0.00 0.00 0.00 0.00 0.00 0.00 0.00 0.00 0.00 0.00 0.00 0.00 0.00 0.00 0.00 0.00 0.00 0.00 0.00 0.00 0.00 0.00 0.00 0.00 0.00 0.00 0.00 0.00 0.00 0.00 0.00 0.00 0.00 0.00 0.00 0.00 0.00 0.00 0.00 0.00 0.00 0.00 0.00 0.00 0.00 0.00 0.00 0.00
0.00 0.00 0.00 0.00 0.00 0.00 0.00 0.00 0.00 0.00 0.00 0.00 0.00 0.00 0.00 0.00 0.00 0.00 0.00 0.00 0.00 0.00 0.00 0.00 0.00 0.00 0.00 0.00 0.00 0.00 0.00 0.00 0.00 0.00 0.00 0.00 0.00 0.00 0.00 0.00 0.00 0.00 0.00 0.00 0.00 0.00 0.00 0.00 0.00
0.00 0.00 0.00 0.00 0.00 0.00 0.00 0.00 0.00 0.00 0.00 0.00 0.00 0.00 0.00 0.00 0.00 0.00 0.00 0.00 0.00 0.00 0.00 0.00 0.00 0.00 0.00 0.00 0.00 0.00 0.00 0.00 0.00 0.00 0.00 0.00 0.00 0.00 0.00 0.00 0.00 0.00 0.00 0.00 0.00 0.00 0.00 0.00 0.01
0.00 0.00 0.00 0.00 0.00 0.00 0.00 0.00 0.00 0.00 0.00 0.00 0.00 0.00 0.00 0.00 0.00 0.00 0.00 0.00 0.00 0.00 0.00 0.00 0.00 0.00 0.00 0.00 0.00 0.00 0.00 0.00 0.00 0.00 0.00 0.00 0.00 0.00 0.00 0.00 0.00 0.00 0.00 0.00 0.00 0.00 0.00 0.00 0.01
0.00 0.00 0.00 0.00 0.00 0.00 0.00 0.00 0.00 0.00 0.00 0.00 0.00 0.00 0.00 0.00 0.00 0.00 0.00 0.00 0.00 0.00 0.00 0.00 0.00 0.00 0.00 0.00 0.00 0.00 0.00 0.00 0.00 0.00 0.00 0.00 0.00 0.00 0.00 0.00 0.00 0.00 0.00 0.00 0.00 0.00 0.00 0.00 0.00
0.00 0.00 0.00 0.00 0.00 0.00 0.00 0.00 0.00 0.00 0.00 0.00 0.00 0.00 0.00 0.00 0.00 0.00 0.00 0.00 0.00 0.00 0.00 0.00 0.00 0.00 0.00 0.00 0.00 0.00 0.00 0.00 0.00 0.00 0.00 0.00 0.00 0.00 0.00 0.00 0.00 0.00 0.00 0.00 0.00 0.00 0.00 0.00 0.00
0.00 0.00 0.00 0.00 0.00 0.00 0.00 0.00 0.00 0.00 0.00 0.00 0.00 0.00 0.00 0.00 0.00 0.00 0.00 0.00 0.00 0.00 0.00 0.00 0.00 0.00 0.00 0.00 0.00 0.00 0.00 0.00 0.00 0.00 0.00 0.00 0.00 0.00 0.00 0.00 0.00 0.00 0.00 0.00 0.00 0.00 0.00 0.00 0.00
0.00 0.00 0.00 0.00 0.00 0.00 0.00 0.00 0.00 0.00 0.00 0.00 0.00 0.00 0.00 0.00 0.00 0.00 0.00 0.00 0.00 0.00 0.00 0.00 0.00 0.00 0.00 0.00 0.00 0.00 0.00 0.00 0.00 0.00 0.00 0.00 0.00 0.00 0.00 0.00 0.00 0.00 0.00 0.00 0.00 0.00 0.00 0.00 0.00
0.00 0.00 0.00 0.00 0.00 0.00 0.00 0.00 0.00 0.00 0.00 0.00 0.00 0.00 0.00 0.00 0.00 0.00 0.00 0.00 0.00 0.00 0.00 0.00 0.00 0.00 0.00 0.00 0.00 0.00 0.00 0.00 0.00 0.00 0.00 0.00 0.00 0.00 0.00 0.00 0.00 0.00 0.00 0.00 0.00 0.00 0.00 0.00 0.00
0.00 0.00 0.00 0.00 0.00 0.00 0.00 0.00 0.00 0.00 0.00 0.00 0.00 0.00 0.00 0.00 0.00 0.00 0.00 0.00 0.00 0.00 0.00 0.00 0.00 0.00 0.00 0.00 0.00 0.00 0.00 0.00 0.00 0.00 0.00 0.00 0.00 0.00 0.00 0.00 0.00 0.00 0.00 0.00 0.00 0.00 0.00 0.00 0.00
0.00 0.00 0.00 0.00 0.00 0.00 0.00 0.00 0.00 0.00 0.00 0.00 0.00 0.00 0.00 0.00 0.00 0.00 0.00 0.00 0.00 0.00 0.00 0.00 0.00 0.00 0.00 0.00 0.00 0.00 0.00 0.00 0.00 0.00 0.00 0.00 0.00 0.00 0.00 0.00 0.00 0.00 0.00 0.00 0.00 0.00 0.00 0.00 0.00
MSLP
1014.21 1014.32 1014.66 1015.02 1016.42 1016.71 1016.14 1015.61 1015.00 1015.18 1015.39 1015.58 1015.31 1015.88 1017.52 1018.04 1018.47 1019.56 1019.22 1019.69 1020.08 1020.64 1021.13 1021.33 1021.45 1021.61 1021.84 1022.03 1022.13 1022.18 1022.25 1022.46 1022.61 1022.73 1022.84 1022.87 1022.92 1022.98 1023.04 1023.12 1023.11 1023.07 1023.20 1023.29 1023.28 1023.34 1023.33 1023.37 1023.40
1014.41 1014.21 1014.80 1015.57 1016.40 1016.75 1016.49 1015.58 1015.68 1015.44 1015.61 1015.45 1015.79 1016.79 1017.43 1018.92 1018.69 1019.10 1019.53 1019.77 1020.03 1020.71 1021.19 1021.48 1021.68 1021.82 1021.99 1022.04 1022.28 1022.44 1022.67 1022.74 1022.89 1023.02 1023.14 1023.18 1023.24 1023.36 1023.51 1023.58 1023.57 1023.61 1023.65 1023.67 1023.67 1023.67 1023.64 1023.68 1023.76
1014.56 1014.50 1015.51 1015.78 1016.23 1016.20 1016.11 1015.82 1015.60 1015.71 1015.61 1015.81 1016.27 1016.87 1017.87 1019.12 1019.03 1019.04 1019.45 1019.77 1020.22 1020.96 1021.45 1021.77 1021.89 1022.02 1022.09 1022.17 1022.45 1022.66 1022.99 1023.13 1023.28 1023.33 1023.42 1023.67 1023.74 1023.79 1023.92 1023.99 1024.01 1023.89 1024.00 1024.15 1024.16 1024.08 1024.16 1024.25 1024.30
1014.72 1014.75 1015.41 1015.56 1015.93 1015.28 1015.37 1015.73 1015.30 1015.71 1015.81 1015.89 1016.56 1017.98 1018.44 1018.61 1018.77 1019.04 1019.34 1020.09 1020.63 1021.26 1021.63 1021.92 1022.09 1022.24 1022.38 1022.47 1022.73 1022.99 1023.23 1023.47 1023.52 1023.69 1023.80 1024.09 1024.23 1024.28 1024.34 1024.41 1024.38 1024.34 1024.44 1024.54 1024.58 1024.60 1024.69 1024.76 1024.70
1014.79 1015.20 1015.49 1015.72 1015.42 1015.01 1015.13 1015.12 1015.14 1015.83 1016.00 1016.14 1016.64 1018.58 1019.03 1018.95 1018.61 1019.16 1019.77 1020.31 1021.01 1021.52 1021.72 1022.04 1022.27 1022.45 1022.58 1022.76 1023.08 1023.31 1023.53 1023.70 1023.86 1024.04 1024.23 1024.45 1024.60 1024.64 1024.64 1024.76 1024.77 1024.84 1024.85 1024.90 1025.00 1025.11 1025.21 1025.21 1025.15
1014.99 1015.12 1015.68 1015.69 1015.41 1014.89 1014.85 1014.87 1015.09 1015.70 1016.09 1016.51 1017.50 1018.52 1019.51 1019.23 1019.13 1019.65 1020.10 1020.70 1021.11 1021.67 1021.97 1022.25 1022.58 1022.74 1022.86 1023.04 1023.36 1023.56 1023.71 1023.85 1024.13 1024.31 1024.48 1024.66 1024.76 1024.86 1024.95 1024.97 1025.07 1025.16 1025.23 1025.25 1025.34 1025.47 1025.56 1025.56 1025.57
1014.82 1015.29 1015.48 1015.61 1015.37 1014.68 1014.61 1014.53 1015.03 1015.60 1015.86 1016.07 1016.87 1018.73 1019.78 1019.60 1019.50 1019.88 1020.29 1020.59 1021.09 1021.67 1022.19 1022.62 1022.88 1023.12 1023.26 1023.39 1023.56 1023.76 1023.90 1024.22 1024.47 1024.68 1024.89 1025.02 1025.09 1025.21 1025.25 1025.19 1025.25 1025.37 1025.50 1025.57 1025.72 1025.80 1025.89 1025.92 1025.97
1014.37 1014.90 1015.28 1015.33 1015.38 1014.90 1014.45 1014.53 1014.86 1015.21 1015.93 1015.71 1016.55 1018.50 1019.56 1019.24 1019.37 1019.98 1020.44 1020.76 1021.14 1021.70 1022.29 1022.71 1023.01 1023.31 1023.54 1023.73 1023.84 1024.03 1024.21 1024.57 1024.84 1025.03 1025.24 1025.36 1025.38 1025.46 1025.53 1025.61 1025.66 1025.79 1025.89 1025.97 1026.06 1026.20 1026.25 1026.27 1026.32
1013.99 1014.72 1015.12 1015.16 1015.14 1014.87 1014.54 1014.82 1014.99 1015.28 1015.81 1016.43 1016.80 1017.30 1017.63 1018.63 1019.25 1020.28 1020.81 1021.16 1021.37 1021.79 1022.24 1022.63 1023.03 1023.33 1023.62 1023.83 1024.09 1024.17 1024.35 1024.73 1024.98 1025.19 1025.32 1025.45 1025.63 1025.77 1025.90 1025.97 1026.05 1026.16 1026.20 1026.27 1026.37 1026.46 1026.49 1026.51 1026.50
1014.26 1014.73 1014.62 1014.31 1014.15 1014.53 1014.52 1014.74 1015.20 1015.84 1016.45 1017.35 1017.57 1017.72 1018.21 1018.77 1019.37 1020.20 1020.96 1021.16 1021.34 1021.54 1022.00 1022.44 1022.93 1023.28 1023.54 1023.73 1024.15 1024.35 1024.63 1024.91 1025.05 1025.26 1025.50 1025.66 1025.77 1025.88 1026.03 1026.15 1026.24 1026.35 1026.39 1026.40 1026.44 1026.49 1026.57 1026.67 1026.75
1014.22 1014.39 1014.29 1014.06 1013.70 1013.77 1014.59 1015.03 1015.17 1015.91 1016.81 1017.07 1017.67 1018.29 1018.66 1019.02 1019.49 1019.99 1020.76 1021.12 1021.21 1021.36 1021.79 1022.01 1022.60 1023.01 1023.45 1023.77 1024.27 1024.53 1024.72 1024.99 1025.10 1025.19 1025.43 1025.71 1025.81 1026.04 1026.20 1026.42 1026.51 1026.53 1026.60 1026.69 1026.63 1026.68 1026.77 1026.79 1026.83
1014.26 1014.09 1014.10 1014.18 1014.05 1014.00 1014.74 1015.05 1015.48 1015.84 1015.98 1016.35 1017.07 1017.72 1018.53 1019.16 1019.52 1019.83 1020.22 1020.81 1021.27 1021.40 1021.63 1021.83 1021.92 1022.61 1023.25 1023.65 1024.09 1024.30 1024.55 1024.78 1025.01 1025.10 1025.31 1025.59 1025.91 1026.18 1026.27 1026.40 1026.51 1026.57 1026.63 1026.69 1026.77 1026.86 1026.78 1026.69 1026.64
1014.19 1014.24 1014.27 1014.39 1014.28 1014.23 1014.66 1015.20 1015.52 1016.09 1016.09 1016.38 1017.28 1017.84 1018.43 1019.04 1019.48 1019.68 1019.94 1020.38 1020.64 1021.11 1021.51 1021.71 1021.83 1022.15 1022.78 1023.40 1023.77 1024.02 1024.19 1024.46 1024.70 1024.99 1025.13 1025.39 1025.74 1025.99 1026.20 1026.30 1026.43 1026.48 1026.50 1026.60 1026.69 1026.73 1026.71 1026.69 1026.68
1014.03 1014.38 1014.44 1014.61 1014.72 1014.77 1015.04 1015.49 1015.52 1016.41 1016.40 1016.98 1017.51 1017.93 1018.30 1018.68 1019.05 1019.43 1019.82 1020.06 1020.42 1020.70 1021.19 1021.52 1021.93 1022.08 1022.34 1022.77 1023.38 1023.54 1023.81 1024.09 1024.43 1024.72 1024.93 1025.23 1025.62 1025.85 1026.05 1026.26 1026.36 1026.44 1026.44 1026.49 1026.62 1026.68 1026.75 1026.78 1026.76
1014.16 1015.17 1015.06 1015.05 1015.12 1015.25 1015.25 1016.09 1016.03 1016.19 1016.72 1017.51 1017.96 1018.08 1018.37 1018.32 1018.60 1018.79 1018.98 1019.45 1019.61 1020.03 1020.62 1021.22 1021.57 1021.86 1022.43 1022.59 1023.01 1023.56 1023.78 1023.93 1024.25 1024.68 1024.89 1025.13 1025.42 1025.68 1025.85 1026.07 1026.17 1026.23 1026.30 1026.37 1026.49 1026.52 1026.59 1026.69 1026.66
1014.63 1015.30 1015.73 1015.42 1015.39 1015.57 1015.78 1016.15 1016.18 1016.32 1016.77 1017.66 1018.09 1018.31 1018.21 1018.09 1018.05 1018.31 1018.59 1018.91 1019.27 1019.60 1020.11 1020.71 1021.11 1021.75 1022.19 1022.66 1023.00 1023.41 1023.78 1024.11 1024.21 1024.28 1024.73 1025.12 1025.26 1025.49 1025.85 1026.04 1026.12 1026.08 1026.17 1026.28 1026.49 1026.69 1026.87 1026.91 1026.87
1014.90 1015.50 1015.64 1015.83 1015.67 1015.71 1016.09 1016.33 1016.16 1016.44 1016.85 1017.60 1018.12 1018.36 1018.14 1018.10 1017.87 1017.85 1017.87 1018.42 1019.05 1019.32 1019.92 1020.45 1020.78 1021.39 1021.92 1022.35 1022.83 1023.17 1023.50 1023.92 1024.26 1024.28 1024.57 1024.84 1025.11 1025.37 1025.69 1026.00 1026.10 1026.14 1026.34 1026.41 1026.40 1026.44 1026.65 1026.60 1026.49
1014.40 1015.31 1015.49 1015.68 1016.00 1015.98 1016.34 1016.42 1016.42 1016.49 1016.83 1017.40 1017.75 1018.11 1018.05 1017.78 1017.52 1017.53 1017.60 1017.85 1018.26 1018.82 1019.37 1020.09 1020.64 1021.05 1021.53 1022.12 1022.77 1023.14 1023.53 1023.82 1024.09 1024.38 1024.56 1024.79 1025.01 1025.17 1025.37 1025.67 1025.85 1025.90 1026.21 1026.13 1026.56 1026.61 1026.40 1026.36 1026.45
1014.41 1014.97 1015.51 1015.87 1015.75 1015.95 1016.22 1016.53 1016.32 1016.49 1016.83 1017.28 1017.50 1017.84 1017.85 1017.69 1017.18 1017.30 1017.49 1017.76 1018.28 1018.61 1019.15 1019.84 1020.48 1021.00 1021.50 1022.10 1022.78 1023.28 1023.52 1023.85 1024.09 1024.26 1024.39 1024.57 1024.83 1025.02 1025.25 1025.40 1025.53 1025.60 1025.79 1025.87 1026.01 1026.26 1026.38 1026.29 1026.23
1014.42 1014.93 1015.74 1016.19 1016.16 1016.04 1016.41 1016.52 1016.33 1016.52 1016.50 1016.51 1016.88 1017.26 1017.34 1017.66 1017.68 1017.64 1017.76 1017.94 1018.18 1018.56 1018.94 1019.36 1019.84 1020.55 1021.13 1021.59 1022.28 1022.72 1023.31 1023.66 1023.77 1024.06 1024.33 1024.45 1024.53 1024.71 1024.93 1025.06 1025.27 1025.40 1025.63 1025.83 1026.15 1026.32 1026.36 1026.31 1026.13
1014.42 1014.66 1015.57 1015.98 1016.72 1016.71 1016.66 1016.92 1016.57 1016.17 1016.17 1016.29 1016.45 1016.82 1017.05 1017.41 1017.88 1018.01 1018.07 1018.28 1018.57 1018.85 1019.12 1019.26 1019.57 1020.04 1020.76 1021.28 1021.91 1022.50 1023.20 1023.57 1023.96 1024.10 1024.14 1024.19 1024.25 1024.37 1024.60 1024.89 1025.08 1025.24 1025.51 1025.71 1025.67 1025.79 1026.03 1026.12 1025.91
1014.06 1014.16 1015.03 1015.93 1016.81 1017.26 1016.94 1017.06 1016.34 1016.03 1015.99 1016.31 1016.59 1016.92 1017.38 1017.59 1018.01 1018.32 1018.51 1018.68 1019.02 1019.34 1019.32 1019.27 1019.33 1019.78 1020.42 1020.93 1021.69 1022.10 1022.68 1023.19 1023.53 1023.75 1023.87 1023.99 1024.12 1024.22 1024.46 1024.71 1024.89 1025.01 1025.18 1025.36 1025.44 1025.39 1025.49 1025.70 1025.77
1013.84 1014.22 1015.06 1016.30 1017.07 1017.47 1017.80 1017.76 1015.99 1016.03 1016.54 1016.53 1016.75 1017.41 1017.67 1018.02 1018.39 1018.80 1019.05 1019.29 1019.26 1019.44 1019.64 1019.49 1019.36 1019.46 1019.97 1020.59 1021.10 1021.80 1022.49 1022.75 1023.24 1023.59 1023.79 1024.06 1024.11 1024.31 1024.47 1024.54 1024.77 1024.85 1024.80 1024.95 1025.04 1025.19 1025.25 1025.45 1025.54
1013.80 1014.73 1015.71 1016.96 1018.07 1018.59 1017.62 1017.67 1016.38 1016.01 1015.56 1016.23 1016.84 1017.74 1018.21 1018.57 1019.06 1019.17 1019.56 1019.67 1019.80 1019.76 1019.76 1019.70 1019.66 1019.67 1019.86 1020.36 1020.89 1021.51 1022.02 1022.83 1023.38 1023.77 1024.01 1024.24 1024.42 1024.55 1024.66 1024.68 1024.81 1024.91 1024.87 1024.87 1024.97 1025.03 1025.20 1025.41 1025.51
1013.61 1014.79 1017.21 1018.75 1019.42 1018.90 1018.25 1018.02 1016.05 1015.27 1015.05 1015.17 1016.42 1017.90 1018.52 1018.94 1019.70 1020.00 1020.23 1020.21 1020.24 1020.18 1020.18 1020.03 1020.07 1020.36 1020.35 1020.65 1021.03 1021.77 1022.27 1022.77 1023.48 1024.06 1024.54 1024.75 1024.90 1025.32 1025.48 1025.39 1025.59 1025.66 1025.70 1025.55 1025.51 1025.50 1025.65 1025.71 1025.71
1013.66 1014.37 1016.10 1017.39 1019.43 1019.58 1018.83 1017.60 1015.84 1015.27 1015.25 1015.25 1016.14 1017.64 1018.65 1019.37 1019.93 1020.30 1020.64 1020.64 1020.63 1020.49 1020.58 1020.56 1020.55 1020.88 1020.76 1021.12 1021.74 1022.33 1023.04 1023.78 1024.07 1024.38 1025.04 1025.50 1025.69 1025.94 1026.14 1025.97 1026.16 1026.27 1026.11 1026.06 1026.02 1026.03 1025.94 1025.81 1025.84
1013.58 1014.45 1015.06 1017.25 1019.78 1019.57 1018.30 1017.27 1016.11 1015.96 1016.20 1016.53 1017.13 1018.01 1018.82 1019.67 1020.09 1020.56 1020.77 1020.90 1020.80 1020.70 1020.92 1020.96 1020.98 1021.29 1021.37 1021.71 1022.06 1022.79 1023.79 1024.48 1024.73 1025.21 1025.51 1026.08 1026.23 1026.24 1026.35 1026.54 1026.56 1026.66 1026.62 1026.54 1026.45 1026.49 1026.49 1026.31 1026.30
1012.87 1013.74 1015.07 1016.53 1018.69 1019.24 1018.36 1017.33 1015.94 1016.22 1016.33 1016.90 1017.76 1018.16 1018.94 1019.67 1020.01 1020.63 1021.16 1021.34 1021.49 1021.43 1021.47 1021.41 1021.67 1021.96 1022.19 1022.36 1023.10 1023.70 1024.33 1025.11 1025.59 1025.79 1026.17 1026.68 1026.86 1026.89 1026.90 1026.96 1026.95 1026.92 1026.91 1026.90 1026.87 1026.75 1026.60 1026.58 1026.45
1013.31 1013.39 1014.28 1015.39 1016.95 1017.62 1018.06 1016.36 1014.23 1014.22 1015.11 1016.01 1017.22 1017.96 1018.68 1019.52 1020.00 1020.56 1021.30 1021.58 1021.72 1022.05 1022.05 1022.25 1022.73 1022.80 1023.20 1023.48 1024.17 1024.59 1025.20 1025.69 1026.23 1026.42 1026.72 1026.94 1027.20 1027.25 1027.29 1027.33 1027.31 1027.29 1027.22 1027.11 1027.10 1027.10 1026.94 1026.79 1026.55
1012.81 1013.04 1013.63 1015.11 1016.77 1017.07 1016.69 1015.10 1013.81 1013.95 1014.50 1015.39 1016.66 1017.48 1018.81 1019.49 1019.99 1020.65 1021.05 1021.55 1022.11 1022.35 1022.62 1022.98 1023.49 1023.53 1023.88 1024.38 1024.84 1025.39 1025.83 1026.17 1026.56 1026.84 1026.98 1027.10 1027.37 1027.51 1027.62 1027.59 1027.49 1027.52 1027.43 1027.35 1027.31 1027.20 1027.05 1026.90 1026.65
Thickness
5731 5732 5734 5725 5692 5684 5686 5701 5713 5708 5705 5713 5720 5706 5688 5688 5683 5666 5698 5695 5692 5689 5685 5684 5685 5688 5689 5690 5692 5692 5693 5693 5693 5694 5694 5695 5696 5696 5696 5695 5695 5695 5694 5693 5693 5691 5690 5688 5686
5727 5732 5726 5708 5679 5670 5676 5706 5696 5707 5711 5717 5713 5703 5695 5677 5694 5692 5690 5694 5693 5687 5684 5683 5684 5686 5687 5690 5690 5689 5688 5691 5691 5692 5692 5693 5692 5693 5692 5691 5691 5691 5690 5689 5687 5686 5685 5684 5682
5723 5728 5705 5691 5679 5678 5681 5699 5702 5710 5717 5715 5708 5708 5696 5682 5692 5694 5696 5694 5690 5685 5682 5681 5682 5683 5686 5689 5688 5688 5688 5689 5689 5689 5690 5689 5689 5689 5688 5687 5687 5687 5685 5683 5682 5682 5680 5678 5677
5715 5714 5705 5685 5684 5703 5702 5699 5710 5710 5715 5720 5706 5689 5696 5701 5699 5699 5696 5691 5689 5683 5681 5680 5680 5682 5684 5687 5687 5687 5687 5686 5687 5686 5686 5685 5684 5684 5684 5683 5683 5682 5681 5679 5678 5677 5676 5675 5674
5711 5701 5685 5681 5695 5710 5707 5711 5714 5708 5708 5715 5713 5688 5686 5699 5707 5702 5696 5691 5687 5684 5682 5680 5680 5681 5684 5685 5684 5685 5685 5684 5684 5684 5684 5682 5681 5681 5681 5680 5679 5678 5678 5677 5675 5674 5672 5672 5671
5693 5697 5674 5671 5690 5709 5713 5714 5716 5711 5709 5708 5699 5692 5687 5702 5703 5698 5696 5691 5687 5684 5682 5680 5679 5680 5683 5684 5683 5684 5684 5683 5682 5682 5682 5681 5681 5680 5679 5678 5677 5675 5674 5673 5672 5670 5668 5667 5666
5690 5684 5676 5685 5685 5701 5710 5719 5713 5708 5709 5714 5713 5687 5688 5697 5703 5700 5697 5694 5690 5686 5683 5681 5680 5679 5680 5681 5682 5683 5683 5681 5681 5680 5680 5679 5680 5679 5678 5677 5675 5674 5672 5670 5668 5667 5665 5664 5663
5693 5687 5684 5688 5682 5691 5713 5721 5722 5716 5710 5728 5719 5688 5684 5700 5707 5702 5698 5696 5693 5689 5685 5684 5682 5680 5681 5681 5682 5683 5682 5680 5679 5679 5678 5678 5677 5677 5676 5674 5673 5671 5670 5668 5666 5664 5663 5661 5660
5705 5674 5672 5683 5689 5695 5713 5712 5722 5724 5716 5716 5718 5712 5715 5712 5709 5700 5697 5694 5693 5692 5689 5687 5684 5683 5682 5683 5683 5684 5683 5681 5680 5679 5678 5678 5677 5675 5674 5673 5671 5669 5668 5667 5665 5663 5662 5660 5658
5681 5669 5683 5700 5705 5699 5709 5713 5713 5709 5707 5703 5706 5714 5714 5711 5706 5700 5695 5696 5695 5697 5694 5690 5687 5685 5684 5684 5683 5683 5682 5681 5681 5680 5678 5676 5676 5675 5673 5671 5669 5668 5667 5666 5664 5662 5660 5658 5656
5684 5676 5690 5705 5713 5714 5707 5707 5716 5703 5701 5707 5705 5706 5709 5707 5705 5702 5698 5699 5700 5701 5698 5695 5691 5689 5687 5686 5683 5682 5682 5681 5680 5680 5679 5677 5676 5674 5673 5670 5668 5667 5665 5664 5663 5661 5659 5657 5655
5675 5690 5695 5703 5709 5711 5704 5708 5708 5711 5715 5718 5716 5716 5711 5707 5705 5704 5703 5702 5700 5702 5700 5699 5697 5692 5690 5688 5686 5685 5685 5684 5683 5682 5681 5679 5677 5674 5672 5671 5669 5667 5666 5664 5662 5660 5659 5658 5656
5675 5678 5690 5696 5703 5705 5707 5702 5707 5706 5716 5718 5716 5716 5711 5708 5705 5707 5707 5706 5706 5704 5702 5701 5700 5698 5693 5690 5689 5688 5688 5686 5685 5682 5681 5679 5676 5674 5672 5670 5668 5667 5665 5663 5662 5660 5659 5657 5655
5678 5678 5683 5691 5695 5698 5696 5700 5710 5705 5711 5709 5712 5710 5712 5711 5709 5708 5706 5707 5707 5707 5705 5704 5700 5699 5697 5694 5693 5691 5690 5689 5687 5685 5682 5678 5675 5673 5671 5669 5667 5665 5664 5662 5660 5658 5656 5654 5652
5672 5664 5675 5681 5687 5689 5696 5689 5696 5704 5706 5703 5703 5706 5709 5714 5714 5713 5714 5711 5714 5713 5709 5705 5703 5700 5697 5697 5695 5692 5690 5689 5687 5684 5681 5679 5676 5674 5672 5670 5668 5665 5663 5660 5658 5657 5655 5653 5651
5661 5656 5649 5673 5678 5683 5687 5675 5694 5701 5700 5697 5700 5701 5707 5714 5717 5718 5717 5716 5716 5716 5715 5711 5706 5702 5698 5696 5694 5692 5689 5686 5685 5684 5680 5677 5675 5672 5670 5668 5666 5664 5662 5659 5655 5653 5650 5648 5647
5648 5631 5643 5654 5671 5676 5678 5675 5692 5697 5699 5696 5693 5697 5704 5709 5716 5720 5722 5721 5716 5717 5714 5711 5711 5706 5701 5696 5694 5691 5688 5685 5682 5680 5678 5675 5673 5670 5668 5665 5662 5659 5655 5655 5654 5652 5649 5646 5644
5632 5636 5647 5646 5662 5673 5668 5679 5685 5695 5697 5696 5695 5696 5703 5708 5716 5720 5722 5723 5721 5718 5717 5712 5710 5708 5704 5698 5691 5689 5686 5683 5680 5677 5675 5672 5670 5668 5667 5664 5660 5658 5654 5652 5648 5645 5644 5643 5639
5646 5648 5651 5651 5660 5664 5662 5669 5681 5687 5693 5692 5694 5693 5699 5705 5718 5720 5722 5722 5720 5719 5716 5712 5708 5704 5701 5696 5689 5684 5682 5680 5676 5674 5673 5671 5668 5665 5661 5659 5656 5654 5651 5648 5645 5642 5638 5636 5633
5640 5640 5639 5643 5656 5667 5659 5666 5676 5681 5689 5696 5698 5697 5701 5705 5707 5712 5716 5717 5718 5717 5715 5713 5709 5704 5700 5697 5689 5685 5679 5676 5674 5671 5668 5667 5665 5662 5659 5657 5653 5649 5647 5642 5636 5633 5630 5628 5625
5631 5634 5629 5639 5643 5655 5659 5655 5667 5683 5691 5695 5703 5702 5705 5704 5702 5706 5709 5711 5710 5710 5710 5711 5709 5705 5698 5694 5689 5682 5675 5671 5668 5666 5665 5663 5662 5660 5656 5652 5649 5645 5640 5636 5634 5630 5624 5621 5619
5621 5643 5637 5633 5637 5630 5651 5633 5658 5671 5681 5686 5691 5695 5698 5701 5701 5701 5703 5703 5702 5700 5703 5704 5707 5705 5698 5692 5685 5681 5675 5669 5666 5663 5660 5658 5656 5654 5650 5646 5643 5639 5635 5630 5626 5622 5619 5614 5611
5628 5633 5632 5632 5630 5628 5633 5628 5654 5663 5669 5677 5684 5686 5691 5694 5695 5693 5693 5694 5698 5697 5695 5697 5699 5700 5699 5692 5686 5678 5671 5668 5664 5660 5656 5651 5649 5645 5642 5640 5635 5632 5630 5625 5620 5616 5611 5606 5602
5624 5622 5622 5619 5612 5603 5628 5626 5641 5655 5679 5678 5680 5679 5683 5683 5683 5687 5686 5688 5688 5688 5689 5690 5691 5691 5691 5688 5682 5676 5671 5662 5657 5652 5649 5645 5641 5636 5634 5631 5628 5624 5621 5618 5612 5607 5603 5598 5592
5615 5613 5576 5582 5577 5591 5606 5613 5644 5670 5680 5685 5683 5674 5674 5676 5673 5674 5675 5677 5679 5680 5680 5682 5682 5679 5679 5676 5673 5668 5663 5658 5650 5644 5639 5635 5632 5625 5621 5619 5615 5611 5607 5605 5601 5596 5590 5584 5579
5603 5607 5578 5583 5568 5586 5597 5606 5640 5662 5667 5679 5680 5671 5669 5666 5665 5665 5665 5667 5669 5671 5670 5671 5672 5669 5670 5666 5660 5656 5649 5642 5638 5635 5628 5622 5618 5614 5610 5608 5603 5598 5595 5592 5588 5583 5579 5574 5568
5598 5596 5612 5585 5512 5571 5598 5621 5646 5653 5658 5662 5663 5663 5659 5657 5656 5656 5656 5657 5660 5662 5660 5661 5662 5659 5659 5656 5652 5645 5635 5628 5625 5620 5616 5610 5606 5603 5600 5596 5592 5587 5583 5578 5574 5569 5563 5559 5553
5602 5612 5594 5582 5562 5569 5589 5611 5628 5634 5649 5651 5652 5655 5651 5650 5649 5647 5644 5645 5645 5647 5648 5650 5648 5647 5645 5643 5636 5630 5623 5616 5611 5607 5602 5596 5593 5589 5587 5582 5578 5574 5570 5565 5560 5556 5552 5545 5539
5588 5588 5597 5597 5585 5577 5570 5604 5644 5660 5656 5655 5650 5650 5648 5643 5641 5639 5635 5635 5635 5633 5635 5635 5632 5632 5628 5625 5618 5614 5608 5603 5597 5594 5590 5586 5580 5577 5573 5569 5564 5560 5556 5553 5548 5542 5538 5533 5528
5590 5598 5601 5585 5582 5584 5580 5614 5648 5655 5654 5656 5649 5646 5636 5635 5633 5628 5627 5625 5622 5622 5622 5620 5616 5616 5613 5609 5604 5599 5595 5591 5587 5583 5580 5575 5569 5564 5559 5554 5551 5546 5542 5539 5535 5529 5524 5519 5516